User: anonymous   Login
Location: NJAA Observatory
(40.6819°N, 74.8979°W)
Time: 07:49:41
(UTC-05:00)
Language:

Iridium 84 - Orbit

View from above orbital plane
View from above orbital plane
View from above satellite
View from above satellite

Ground track
Ground track

The orbit data is extracted from the following two-line orbital elements,

1 25530U 98066D   17015.49138123  .00000074  00000-0  19229-4 0  9997
2 25530  86.3936  53.8120 0002134  94.6143 265.5296 14.34218943955113
Epoch (UTC): 15 January 2017 11:47:35
Eccentricity: 0.0002134
inclination: 86.3936°
perigee height: 776 km
apogee height: 779 km
right ascension of ascending node: 53.8120°
argument of perigee: 94.6143°
revolutions per day: 14.34218943
mean anomaly at epoch: 265.5296°
orbit number at epoch: 95511

The dashed part of the orbit path shows where the satellite is in the earth's shadow,  

DLR